Weather History for Dublin, VA

Change the Weather History Date:

Saturday, February 9, 2013

  Actual Average (KBCB) Record (KBCB)
Temperature  
Mean Temperature 35 °F 33 °F  
Max Temperature 46 °F 44 °F 65 °F (1965)
Min Temperature 24 °F 23 °F 4 °F (1967)
Degree Days  
Heating Degree Days 30 32  
Month to date heating degree days 291  
Since 1 July heating degree days 3478  
Cooling Degree Days 0 0  
Month to date cooling degree days 0  
Year to date cooling degree days 0  
Moisture  
Dew Point 15 °F    
Average Humidity 49    
Maximum Humidity 74    
Minimum Humidity 17    
Precipitation  
Precipitation 0.00 in 0.11 in 1.13 in (1957)
Month to date precipitation 0.90  
Year to date precipitation 3.98  
Snow  
Snow 0.00 in - - ()
Month to date snowfall  
Since 1 July snowfall  
Snow Depth -    
Sea Level Pressure  
Sea Level Pressure 30.24 in    
Wind  
Wind Speed 8 mph (NNW)    
Max Wind Speed 20 mph    
Max Gust Speed 31 mph    
Visibility 10 miles    
Events      
T = Trace of Precipitation, MM = Missing Value Source: NWS Daily Summary

Daily Weather History Graph

Daily Weather History Graph

Search for Another Location

Airport:

Trip Planner

Search our weather history database for the weather conditions in past years. The results will help you decide how hot, cold, wet, or windy it might be!

Date:

Astronomy

Feb. 09, 2013 Rise Set
Actual Time 7:17 AM EST 5:56 PM EST
Civil Twilight 6:50 AM EST 6:23 PM EST
Nautical Twilight 6:20 AM EST 6:54 PM EST
Astronomical Twilight 5:49 AM EST 7:24 PM EST
Moon 6:28 AM EST (2/9) 5:36 PM EST (2/9)
Length of Visible Light 11h 32m
Length of Day
10h 38m
Waning Crescent, 0% of the Moon is Illuminated
Feb 9
Waning Crescent
Feb 10
New
Feb 17
First Quarter
Feb 25
Full
Mar 4
Last Quarter

Hourly Weather History & Observations

Time (EST) Temp. Windchill Dew Point Humidity Pressure Visibility Wind Dir Wind Speed Gust Speed Precip Events Conditions
12:15 AM 33.8 °F 22.8 °F 24.8 °F 70% 30.10 in 10.0 mi NW 18.4 mph 23.0 mph N/A   Mostly Cloudy
12:35 AM 33.8 °F 23.2 °F 23.0 °F 65% 30.12 in 10.0 mi NW 17.3 mph 24.2 mph N/A   Mostly Cloudy
12:55 AM 32.0 °F 21.2 °F 23.0 °F 69% 30.11 in 10.0 mi NW 16.1 mph 31.1 mph N/A   Scattered Clouds
1:15 AM 32.0 °F 20.8 °F 23.0 °F 69% 30.11 in 10.0 mi NW 17.3 mph 26.5 mph N/A   Scattered Clouds
1:35 AM 32.0 °F 21.6 °F 21.2 °F 64% 30.11 in 10.0 mi NW 15.0 mph 25.3 mph N/A   Clear
1:55 AM 30.2 °F 17.8 °F 21.2 °F 69% 30.11 in 10.0 mi NW 19.6 mph 24.2 mph N/A   Clear
2:15 AM 30.2 °F 18.9 °F 21.2 °F 69% 30.10 in 10.0 mi WNW 16.1 mph - N/A   Clear
2:35 AM 30.2 °F 18.9 °F 21.2 °F 69% 30.11 in 10.0 mi NW 16.1 mph 24.2 mph N/A   Clear
2:55 AM 30.2 °F 20.8 °F 21.2 °F 69% 30.11 in 10.0 mi NW 11.5 mph 19.6 mph N/A   Clear
3:15 AM 30.2 °F 21.3 °F 21.2 °F 69% 30.12 in 10.0 mi NW 10.4 mph - N/A   Clear
3:35 AM 28.4 °F 22.2 °F 19.4 °F 69% 30.12 in 10.0 mi NNW 5.8 mph - N/A   Clear
3:55 AM 28.4 °F 19.7 °F 19.4 °F 69% 30.13 in 10.0 mi NW 9.2 mph - N/A   Clear
4:15 AM 28.4 °F 24.6 °F 19.4 °F 69% 30.14 in 10.0 mi East 3.5 mph - N/A   Clear
4:35 AM 28.4 °F - 19.4 °F 69% 30.14 in 10.0 mi Calm Calm - N/A   Clear
4:55 AM 28.4 °F - 19.4 °F 69% 30.15 in 10.0 mi Calm Calm - N/A   Clear
5:15 AM 26.6 °F - 19.4 °F 74% 30.16 in 10.0 mi Calm Calm - N/A   Clear
5:35 AM 28.4 °F 23.3 °F 19.4 °F 69% 30.17 in 10.0 mi NW 4.6 mph - N/A   Clear
5:55 AM 28.4 °F - 17.6 °F 64% 30.18 in 10.0 mi Calm Calm - N/A   Clear
6:15 AM 26.6 °F - 17.6 °F 69% 30.19 in 10.0 mi Calm Calm - N/A   Clear
6:35 AM 26.6 °F 19.1 °F 17.6 °F 69% 30.20 in 10.0 mi NW 6.9 mph - N/A   Clear
7:15 AM 24.8 °F - 17.6 °F 74% 30.20 in 10.0 mi Calm Calm - N/A   Clear
7:35 AM 26.6 °F - 17.6 °F 69% 30.21 in 10.0 mi Calm Calm - N/A   Clear
7:55 AM 26.6 °F - 15.8 °F 64% 30.23 in 10.0 mi Calm Calm - N/A   Clear
8:15 AM 28.4 °F 23.3 °F 15.8 °F 59% 30.23 in 10.0 mi NNW 4.6 mph - N/A   Clear
8:35 AM 28.4 °F 24.6 °F 15.8 °F 59% 30.23 in 10.0 mi NE 3.5 mph - N/A   Clear
8:55 AM 30.2 °F 24.3 °F 15.8 °F 55% 30.24 in 10.0 mi NW 5.8 mph - N/A   Clear
9:15 AM 30.2 °F 26.7 °F 15.8 °F 55% 30.24 in 10.0 mi North 3.5 mph - N/A   Clear
9:35 AM 32.0 °F 28.7 °F 15.8 °F 51% 30.25 in 10.0 mi North 3.5 mph - N/A   Clear
9:55 AM 33.8 °F 30.8 °F 14.0 °F 44% 30.25 in 10.0 mi NNW 3.5 mph - N/A   Clear
10:15 AM 33.8 °F 30.8 °F 14.0 °F 44% 30.27 in 10.0 mi NNE 3.5 mph - N/A   Clear
10:35 AM 35.6 °F 31.7 °F 15.8 °F 44% 30.27 in 10.0 mi North 4.6 mph - N/A   Clear
10:55 AM 35.6 °F 32.8 °F 14.0 °F 41% 30.27 in 10.0 mi North 3.5 mph - N/A   Clear
11:15 AM 35.6 °F 31.7 °F 12.2 °F 38% 30.28 in 10.0 mi North 4.6 mph - N/A   Clear
11:35 AM 37.4 °F 33.8 °F 14.0 °F 38% 30.28 in 10.0 mi North 4.6 mph - N/A   Clear
11:55 AM 37.4 °F 33.8 °F 14.0 °F 38% 30.29 in 10.0 mi NNW 4.6 mph - N/A   Clear
12:15 PM 39.2 °F - 14.0 °F 36% 30.28 in 10.0 mi Calm Calm - N/A   Clear
12:35 PM 39.2 °F 37.0 °F 10.4 °F 31% 30.27 in 10.0 mi NNW 3.5 mph - N/A   Clear
12:55 PM 41.0 °F - 10.4 °F 29% 30.27 in 10.0 mi Calm Calm - N/A   Clear
1:15 PM 42.8 °F - 10.4 °F 27% 30.27 in 10.0 mi Calm Calm - N/A   Clear
1:35 PM 42.8 °F 41.1 °F 10.4 °F 27% 30.26 in 10.0 mi NNE 3.5 mph - N/A   Clear
1:55 PM 44.6 °F 43.1 °F 10.4 °F 25% 30.26 in 10.0 mi WNW 3.5 mph - N/A   Clear
2:15 PM 44.6 °F - 10.4 °F 25% 30.26 in 10.0 mi Calm Calm - N/A   Clear
2:35 PM 44.6 °F - 8.6 °F 23% 30.26 in 10.0 mi Calm Calm - N/A   Clear
2:55 PM 44.6 °F - 8.6 °F 23% 30.27 in 10.0 mi Calm Calm - N/A   Clear
3:15 PM 46.4 °F - 8.6 °F 22% 30.27 in 10.0 mi Calm Calm - N/A   Clear
3:35 PM 46.4 °F - 6.8 °F 20% 30.27 in 10.0 mi Calm Calm - N/A   Clear
3:55 PM 46.4 °F - 10.4 °F 23% 30.28 in 10.0 mi Calm Calm - N/A   Clear
4:15 PM 46.4 °F 45.2 °F 8.6 °F 22% 30.28 in 10.0 mi WNW 3.5 mph - N/A   Clear
4:35 PM 46.4 °F 44.3 °F 8.6 °F 22% 30.28 in 10.0 mi North 4.6 mph - N/A   Clear
4:55 PM 46.4 °F - 3.2 °F 17% 30.28 in 10.0 mi Calm Calm - N/A   Clear
5:15 PM 44.6 °F - 10.4 °F 25% 30.28 in 10.0 mi Calm Calm - N/A   Clear
5:35 PM 42.8 °F - 10.4 °F 27% 30.28 in 10.0 mi Calm Calm - N/A   Clear
5:55 PM 42.8 °F - 8.6 °F 25% 30.28 in 10.0 mi Calm Calm - N/A   Clear
6:15 PM 39.2 °F - 10.4 °F 31% 30.29 in 10.0 mi Calm Calm - N/A   Clear
6:35 PM 39.2 °F - 10.4 °F 31% 30.30 in 10.0 mi Calm Calm - N/A   Clear
6:55 PM 37.4 °F - 10.4 °F 33% 30.30 in 10.0 mi Calm Calm - N/A   Clear
7:15 PM 37.4 °F 34.9 °F 10.4 °F 33% 30.30 in 10.0 mi North 3.5 mph - N/A   Clear
7:35 PM 35.6 °F - 12.2 °F 38% 30.31 in 10.0 mi Calm Calm - N/A   Clear
7:55 PM 35.6 °F - 12.2 °F 38% 30.32 in 10.0 mi Calm Calm - N/A   Clear
8:35 PM 33.8 °F - 12.2 °F 41% 30.31 in 10.0 mi Calm Calm - N/A   Clear
8:55 PM 30.2 °F - 15.8 °F 55% 30.31 in 10.0 mi Calm Calm - N/A   Clear
9:15 PM 30.2 °F - 15.8 °F 55% 30.31 in 10.0 mi Calm Calm - N/A   Clear
9:35 PM 30.2 °F - 15.8 °F 55% 30.32 in 10.0 mi Calm Calm - N/A   Clear
9:55 PM 28.4 °F - 15.8 °F 59% 30.32 in 10.0 mi Calm Calm - N/A   Clear
10:15 PM 28.4 °F 24.6 °F 15.8 °F 59% 30.32 in 10.0 mi South 3.5 mph - N/A   Clear
10:35 PM 30.2 °F 26.7 °F 15.8 °F 55% 30.31 in 10.0 mi South 3.5 mph - N/A   Clear
10:55 PM 28.4 °F - 15.8 °F 59% 30.31 in 10.0 mi Calm Calm - N/A   Clear
11:15 PM 26.6 °F 21.2 °F 17.6 °F 69% 30.32 in 10.0 mi West 4.6 mph - N/A   Clear
11:35 PM 26.6 °F - 17.6 °F 69% 30.32 in 10.0 mi Calm Calm - N/A   Clear
11:55 PM 26.6 °F - 17.6 °F 69% 30.32 in 10.0 mi Calm Calm - N/A   Clear